TimeCDT,TemperatureF,Dew PointF,Humidity,Sea Level PressureIn,VisibilityMPH,Wind Direction,Wind SpeedMPH,Gust SpeedMPH,PrecipitationIn,Events,Conditions,WindDirDegrees,DateUTC
12:15 AM,42.8,24.8,49,29.94,10.0,SSW,17.3,-,N/A,,Clear,210,2012-10-08 05:15:00
12:35 AM,41.0,24.8,53,29.93,10.0,SSW,17.3,-,N/A,,Clear,210,2012-10-08 05:35:00
12:55 AM,41.0,26.6,57,29.93,10.0,SSW,16.1,-,N/A,,Clear,210,2012-10-08 05:55:00
1:15 AM,41.0,26.6,57,29.93,10.0,SSW,15.0,-,N/A,,Clear,210,2012-10-08 06:15:00
1:35 AM,41.0,26.6,57,29.92,10.0,SSW,15.0,21.9,N/A,,Clear,210,2012-10-08 06:35:00
1:55 AM,41.0,26.6,57,29.92,10.0,SSW,17.3,-,N/A,,Clear,210,2012-10-08 06:55:00
2:15 AM,41.0,28.4,61,29.91,10.0,SSW,16.1,-,N/A,,Clear,210,2012-10-08 07:15:00
2:35 AM,41.0,28.4,61,29.91,10.0,SSW,16.1,21.9,N/A,,Clear,210,2012-10-08 07:35:00
2:55 AM,41.0,28.4,61,29.90,10.0,SW,16.1,-,N/A,,Clear,220,2012-10-08 07:55:00
3:15 AM,41.0,30.2,65,29.89,10.0,SW,15.0,-,N/A,,Clear,220,2012-10-08 08:15:00
3:35 AM,41.0,30.2,65,29.89,10.0,SSW,15.0,-,N/A,,Clear,210,2012-10-08 08:35:00
3:55 AM,41.0,30.2,65,29.89,10.0,SW,13.8,-,N/A,,Clear,220,2012-10-08 08:55:00
4:15 AM,41.0,30.2,65,29.88,10.0,SW,13.8,-,N/A,,Clear,220,2012-10-08 09:15:00
4:35 AM,41.0,32.0,70,29.88,10.0,SW,13.8,-,N/A,,Clear,220,2012-10-08 09:35:00
4:55 AM,41.0,32.0,70,29.88,10.0,SW,11.5,-,N/A,,Clear,220,2012-10-08 09:55:00
5:35 AM,41.0,32.0,70,29.88,-9999.0,SSW,12.7,-,N/A,,Partly Cloudy,210,2012-10-08 10:35:00
5:55 AM,41.0,32.0,70,29.88,10.0,SSW,9.2,-,N/A,,Partly Cloudy,210,2012-10-08 10:55:00
6:15 AM,41.0,32.0,70,29.88,10.0,SSW,11.5,-,N/A,,Mostly Cloudy,210,2012-10-08 11:15:00
6:35 AM,39.2,32.0,75,29.87,10.0,SSW,10.4,-,N/A,,Scattered Clouds,210,2012-10-08 11:35:00
6:55 AM,39.2,32.0,75,29.87,10.0,SSW,5.8,-,N/A,,Clear,210,2012-10-08 11:55:00
7:15 AM,39.2,32.0,75,29.87,10.0,SSW,6.9,-,N/A,,Clear,200,2012-10-08 12:15:00
7:35 AM,39.2,32.0,75,29.86,10.0,South,6.9,-,N/A,,Clear,190,2012-10-08 12:35:00
7:55 AM,39.2,32.0,75,29.87,10.0,SSW,10.4,-,N/A,,Scattered Clouds,200,2012-10-08 12:55:00
8:15 AM,42.8,32.0,66,29.86,10.0,SSW,13.8,-,N/A,,Scattered Clouds,200,2012-10-08 13:15:00
8:35 AM,42.8,32.0,66,29.86,10.0,SSW,15.0,-,N/A,,Scattered Clouds,210,2012-10-08 13:35:00
8:55 AM,42.8,32.0,66,29.84,10.0,SSW,20.7,-,N/A,,Mostly Cloudy,200,2012-10-08 13:55:00
9:15 AM,44.6,32.0,61,29.83,10.0,SSW,18.4,-,N/A,,Mostly Cloudy,210,2012-10-08 14:15:00
9:35 AM,46.4,32.0,57,29.84,10.0,SSW,15.0,23.0,N/A,,Scattered Clouds,210,2012-10-08 14:35:00
9:55 AM,48.2,32.0,54,29.84,10.0,SSW,19.6,-,N/A,,Clear,210,2012-10-08 14:55:00
10:15 AM,48.2,32.0,54,29.83,10.0,SSW,21.9,-,N/A,,Clear,210,2012-10-08 15:15:00
10:35 AM,50.0,32.0,50,29.83,10.0,SW,21.9,27.6,N/A,,Clear,220,2012-10-08 15:35:00
10:55 AM,51.8,32.0,47,29.83,10.0,SSW,19.6,28.8,N/A,,Clear,210,2012-10-08 15:55:00
11:15 AM,53.6,30.2,41,29.81,10.0,SSW,20.7,29.9,N/A,,Clear,210,2012-10-08 16:15:00
11:35 AM,57.2,30.2,36,29.81,10.0,SSW,23.0,-,N/A,,Clear,210,2012-10-08 16:35:00
11:55 AM,59.0,30.2,34,29.80,10.0,SSW,23.0,29.9,N/A,,Clear,210,2012-10-08 16:55:00
12:15 PM,60.8,28.4,29,29.80,10.0,SW,25.3,31.1,N/A,,Clear,220,2012-10-08 17:15:00
12:35 PM,62.6,28.4,27,29.79,10.0,SSW,25.3,33.4,N/A,,Clear,210,2012-10-08 17:35:00
12:55 PM,64.4,26.6,24,29.77,10.0,SSW,26.5,34.5,N/A,,Clear,210,2012-10-08 17:55:00
1:15 PM,66.2,26.6,23,29.76,10.0,SW,28.8,35.7,N/A,,Clear,220,2012-10-08 18:15:00
1:35 PM,66.2,24.8,21,29.75,10.0,SW,28.8,35.7,N/A,,Clear,230,2012-10-08 18:35:00
1:55 PM,66.2,24.8,21,29.74,10.0,SW,27.6,38.0,N/A,,Clear,220,2012-10-08 18:55:00
2:15 PM,68.0,24.8,20,29.73,10.0,SW,28.8,38.0,N/A,,Clear,220,2012-10-08 19:15:00
2:35 PM,66.2,24.8,21,29.73,10.0,SW,21.9,39.1,N/A,,Scattered Clouds,230,2012-10-08 19:35:00
2:55 PM,68.0,24.8,20,29.73,10.0,SW,29.9,38.0,N/A,,Scattered Clouds,230,2012-10-08 19:55:00
3:15 PM,66.2,26.6,23,29.73,10.0,SW,25.3,35.7,N/A,,Scattered Clouds,220,2012-10-08 20:15:00
3:35 PM,68.0,24.8,20,29.71,10.0,SSW,31.1,38.0,N/A,,Partly Cloudy,210,2012-10-08 20:35:00
3:55 PM,66.2,26.6,23,29.72,10.0,SW,25.3,36.8,N/A,,Clear,220,2012-10-08 20:55:00
4:15 PM,68.0,26.6,21,29.72,10.0,SW,26.5,35.7,N/A,,Clear,220,2012-10-08 21:15:00
4:35 PM,68.0,26.6,21,29.71,10.0,SW,24.2,33.4,N/A,,Clear,220,2012-10-08 21:35:00
4:55 PM,68.0,26.6,21,29.71,10.0,SSW,23.0,33.4,N/A,,Clear,210,2012-10-08 21:55:00
5:15 PM,68.0,26.6,21,29.70,10.0,SSW,25.3,33.4,N/A,,Clear,210,2012-10-08 22:15:00
5:35 PM,66.2,26.6,23,29.70,10.0,SSW,21.9,28.8,N/A,,Clear,210,2012-10-08 22:35:00
5:55 PM,64.4,26.6,24,29.71,10.0,SW,17.3,-,N/A,,Mostly Cloudy,220,2012-10-08 22:55:00
6:15 PM,66.2,26.6,23,29.71,10.0,SSW,20.7,-,N/A,,Mostly Cloudy,210,2012-10-08 23:15:00
6:35 PM,64.4,28.4,26,29.72,10.0,SSW,18.4,-,N/A,,Mostly Cloudy,210,2012-10-08 23:35:00
6:55 PM,64.4,28.4,26,29.73,10.0,WSW,16.1,-,N/A,,Overcast,250,2012-10-08 23:55:00
7:15 PM,64.4,28.4,26,29.74,10.0,SW,20.7,-,N/A,,Overcast,220,2012-10-09 00:15:00
7:35 PM,66.2,28.4,24,29.75,10.0,WSW,13.8,20.7,N/A,,Overcast,240,2012-10-09 00:35:00
7:55 PM,64.4,30.2,28,29.76,10.0,WSW,11.5,-,N/A,,Overcast,250,2012-10-09 00:55:00
8:15 PM,64.4,32.0,30,29.77,10.0,West,6.9,-,N/A,,Overcast,260,2012-10-09 01:15:00
8:35 PM,62.6,35.6,37,29.78,10.0,West,5.8,11.5,N/A,,Overcast,280,2012-10-09 01:35:00
8:55 PM,62.6,37.4,39,29.78,10.0,Variable,5.8,-,N/A,,Overcast,0,2012-10-09 01:55:00
9:15 PM,60.8,41.0,48,29.79,10.0,WNW,6.9,-,N/A,,Overcast,290,2012-10-09 02:15:00
9:35 PM,60.8,39.2,45,29.80,10.0,NW,9.2,-,N/A,,Overcast,310,2012-10-09 02:35:00
9:55 PM,59.0,41.0,51,29.81,10.0,NNW,15.0,-,N/A,,Overcast,340,2012-10-09 02:55:00
10:15 PM,57.2,42.8,59,29.81,10.0,North,15.0,21.9,N/A,,Overcast,10,2012-10-09 03:15:00
10:55 PM,53.6,46.4,77,29.83,8.0,North,12.7,-,N/A,Rain,Light Rain,10,2012-10-09 03:55:00
11:15 PM,51.8,46.4,82,29.82,10.0,NNE,9.2,-,N/A,,Overcast,20,2012-10-09 04:15:00
11:35 PM,51.8,46.4,82,29.82,10.0,NNE,6.9,-,N/A,,Overcast,30,2012-10-09 04:35:00
11:55 PM,50.0,46.4,87,29.80,10.0,NE,6.9,-,N/A,,Overcast,40,2012-10-09 04:55:00